Location: Jastrz?bniki
(50.3667°N, 20.3833°E)
Time: 10:35:49
(UTC+00:00)

Cosmos 1703 Rocket - Pass Details

Date: 05 August 2024
Orbit: 602 x 627 km, 82.5° (Epoch: 09 September)

Event Time Altitude Azimuth Distance (km) Brightness Sun altitude
Rises 01:43:35 0° 348° (NNW) 2,885 7.5 -12.1°
Reaches altitude 10° 01:45:49 10° 346° (NNW) 1,980 6.6 -11.9°
Maximum altitude 01:50:11 72° 263° (W) 651 3.5 -11.4°
Drops below altitude 10° 01:54:33 10° 179° (S) 1,980 5.8 -10.9°
Enters shadow 01:55:54 - 178° (S) 2,528 6.3 -10.7°
